ROMMA est une association bénévole à but non lucratif. Votre soutien est indispensable : ADHERER à ROMMA ou FAIRE un DON

Chélieu - (38, Isère)

Terres Froides (550 m)   Longitude: 5° 28' 48.00" E   Latitude: 45° 31' 02.39"N Station partenaire n°44
 

Détail journalier du     <<     >>

Température Precipitation Humidité Pression Vent Dir Rafale Dir. rafale
Heure (°C) (mm) (%) (hPa) (km/h) (km/h)
01:00 8.1093102200
02:00 7.8093102200
03:00 9.109510231SSE11SSE
04:00 8.409310221SE6SSE
05:00 9.509110222SE10S
06:00 9.908810222SSO10SO
07:00 8.309110221S6S
08:00 8.109210222ESE8ESE
09:00 8.609310231SE10SE
10:00 11.708710232SSE8S
11:00 15.207810231SSE10S
12:00 18.107110233S15OSO
13:00 18.806810235S15SO
14:00 19.706710225SO16SO
15:00 20.806210225S15S
16:00 20.905310224SSO13S
17:00 20.305410225SO16S
18:00 18.905710212SO11S
19:00 13.707010221OSO11OSO
20:00 13.10731022010OSO
21:00 13.107010221SO8SO
22:00 14.106910223SSO11SO
23:00 13.307210225OSO13SO
minuit 13.807210225SO15OSO

Graphique du 26-10-2019

 

Serveur OMMA